Hourly Weather Encamp

Today, 1 October, Thursday

Time Temperature Precipitation Wind Pressure Humidity
00:00 +7°C° 0 mm 1 mps 620 mmHg 69%
01:00 +8°C° 0 mm 1 mps 619 mmHg 68%
02:00 +7°C° 0 mm 2 mps 619 mmHg 67%
03:00 +7°C° 0 mm 2 mps 619 mmHg 66%
04:00 +7°C° 0 mm 2 mps 619 mmHg 65%
05:00 +7°C° 0 mm 1 mps 618 mmHg 64%
06:00 +7°C° 0 mm 1 mps 618 mmHg 63%
07:00 +9°C° 0 mm 1 mps 619 mmHg 60%
08:00 +11°C° 0 mm 1 mps 620 mmHg 57%
09:00 +13°C° 0 mm 1 mps 621 mmHg 53%
10:00 +14°C° 0 mm 2 mps 621 mmHg 53%
11:00 +15°C° 0 mm 2 mps 621 mmHg 52%
12:00 +15°C° 0 mm 2 mps 621 mmHg 51%
13:00 +15°C° 0 mm 2 mps 621 mmHg 55%
14:00 +14°C° 0 mm 2 mps 620 mmHg 59%
15:00 +14°C° 0 mm 2 mps 619 mmHg 63%
16:00 +12°C° 0 mm 2 mps 618 mmHg 70%
17:00 +10°C° 0 mm 2 mps 618 mmHg 77%
18:00 +9°C° 0 mm 1 mps 617 mmHg 84%
19:00 +8°C° 0 mm 1 mps 616 mmHg 86%
20:00 +7°C° 0 mm 2 mps 616 mmHg 89%
21:00 +6°C° 0 mm 2 mps 615 mmHg 91%
22:00 +6°C° 0 mm 2 mps 614 mmHg 91%
23:00 +7°C° 0 mm 3 mps 613 mmHg 91%

Tomorrow, 2 October, Friday

Time Temperature Precipitation Wind Pressure Humidity
00:00 +7°C° 0 mm 3 mps 613 mmHg 91%
01:00 +6°C° 0.1 mm 4 mps 612 mmHg 91%
02:00 +6°C° 0.1 mm 4 mps 611 mmHg 90%
03:00 +6°C° 0.1 mm 4 mps 610 mmHg 90%
04:00 +7°C° 0.5 mm 3 mps 609 mmHg 91%
05:00 +5°C° 0.5 mm 3 mps 609 mmHg 93%
06:00 +6°C° 0.5 mm 2 mps 608 mmHg 94%
07:00 +5°C° 1.5 mm 3 mps 607 mmHg 94%
08:00 +7°C° 1.5 mm 3 mps 607 mmHg 94%
09:00 +7°C° 1.5 mm 3 mps 606 mmHg 94%
10:00 +5°C° 3.3 mm 3 mps 606 mmHg 95%
11:00 +5°C° 3.3 mm 3 mps 605 mmHg 97%
12:00 +4°C° 3.3 mm 3 mps 605 mmHg 98%
13:00 +4°C° 6 mm 2 mps 605 mmHg 98%
14:00 +4°C° 6 mm 2 mps 605 mmHg 98%
15:00 +3°C° 6 mm 2 mps 605 mmHg 98%
16:00 +2°C° 1.3 mm 2 mps 605 mmHg 97%
17:00 +1°C° 1.3 mm 2 mps 605 mmHg 97%
18:00 -1°C° 1.3 mm 2 mps 605 mmHg 96%
19:00 -1°C° 1.1 mm 2 mps 605 mmHg 96%
20:00 0°C° 1.1 mm 1 mps 605 mmHg 95%
21:00 0°C° 1.1 mm 1 mps 606 mmHg 94%
22:00 0°C° 0.2 mm 1 mps 605 mmHg 95%
23:00 -2°C° 0.2 mm 2 mps 605 mmHg 95%

Day after tomorrow, 3 October, Saturday

Time Temperature Precipitation Wind Pressure Humidity
00:00 -2°C° 0.2 mm 2 mps 605 mmHg 95%
01:00 -2°C° 0.1 mm 3 mps 605 mmHg 95%
02:00 -2°C° 0.1 mm 3 mps 605 mmHg 95%
03:00 -2°C° 0.1 mm 3 mps 605 mmHg 95%
04:00 -2°C° 0.2 mm 3 mps 605 mmHg 96%
05:00 -1°C° 0.2 mm 2 mps 605 mmHg 96%
06:00 -1°C° 0.2 mm 2 mps 606 mmHg 97%
07:00 +1°C° 0.1 mm 2 mps 607 mmHg 96%
08:00 +1°C° 0.1 mm 2 mps 608 mmHg 95%
09:00 +2°C° 0.1 mm 2 mps 609 mmHg 94%
10:00 +3°C° 0 mm 2 mps 609 mmHg 92%
11:00 +4°C° 0 mm 2 mps 610 mmHg 89%
12:00 +5°C° 0 mm 2 mps 610 mmHg 86%
13:00 +4°C° 0.2 mm 2 mps 611 mmHg 88%
14:00 +4°C° 0.2 mm 2 mps 611 mmHg 89%
15:00 +4°C° 0.2 mm 2 mps 611 mmHg 90%
16:00 +5°C° 0.1 mm 1 mps 611 mmHg 92%
17:00 +4°C° 0.1 mm 1 mps 611 mmHg 95%
18:00 +4°C° 0.1 mm 1 mps 612 mmHg 97%
19:00 +3°C° 0 mm 1 mps 612 mmHg 96%
20:00 +2°C° 0 mm 1 mps 612 mmHg 95%
21:00 +2°C° 0 mm 1 mps 613 mmHg 94%
22:00 +2°C° 0 mm 1 mps 613 mmHg 93%
23:00 +1°C° 0 mm 1 mps 612 mmHg 93%

4 October, Sunday

Time Temperature Precipitation Wind Pressure Humidity
00:00 +1°C° 0 mm 1 mps 612 mmHg 92%
01:00 +1°C° 0 mm 1 mps 612 mmHg 93%
02:00 -1°C° 0 mm 2 mps 612 mmHg 94%
03:00 +1°C° 0 mm 2 mps 612 mmHg 96%
04:00 +1°C° 0 mm 2 mps 612 mmHg 95%
05:00 -1°C° 0 mm 2 mps 611 mmHg 95%
06:00 +1°C° 0 mm 1 mps 611 mmHg 95%
07:00 +2°C° 0 mm 1 mps 612 mmHg 92%
08:00 +3°C° 0 mm 1 mps 613 mmHg 88%
09:00 +5°C° 0 mm 1 mps 613 mmHg 85%
10:00 +6°C° 0 mm 1 mps 614 mmHg 81%
11:00 +7°C° 0 mm 1 mps 614 mmHg 78%
12:00 +8°C° 0 mm 1 mps 614 mmHg 75%
13:00 +7°C° 0.3 mm 1 mps 614 mmHg 77%
14:00 +7°C° 0.3 mm 1 mps 614 mmHg 79%
15:00 +6°C° 0.3 mm 2 mps 614 mmHg 81%
16:00 +6°C° 0.2 mm 1 mps 614 mmHg 85%
17:00 +5°C° 0.2 mm 1 mps 614 mmHg 89%
18:00 +3°C° 0.2 mm 1 mps 613 mmHg 93%
19:00 +3°C° 0.2 mm 1 mps 614 mmHg 94%
20:00 +3°C° 0.2 mm 1 mps 614 mmHg 95%
21:00 +3°C° 0.2 mm 1 mps 614 mmHg 96%
22:00 +2°C° 0.4 mm 1 mps 614 mmHg 96%
23:00 +2°C° 0.4 mm 1 mps 614 mmHg 95%

5 October, Monday

Time Temperature Precipitation Wind Pressure Humidity
00:00 +1°C° 0.4 mm 1 mps 614 mmHg 95%
01:00 +2°C° 0.5 mm 1 mps 614 mmHg 95%
02:00 +2°C° 0.5 mm 1 mps 614 mmHg 94%
03:00 +2°C° 0.5 mm 1 mps 615 mmHg 94%
04:00 +1°C° 0 mm 1 mps 615 mmHg 94%
05:00 +1°C° 0 mm 1 mps 615 mmHg 94%
06:00 0°C° 0 mm 1 mps 615 mmHg 93%
07:00 +2°C° 0 mm 1 mps 616 mmHg 89%
08:00 +4°C° 0 mm 1 mps 617 mmHg 84%
09:00 +5°C° 0 mm 1 mps 618 mmHg 80%
10:00 +6°C° 0 mm 1 mps 619 mmHg 76%
11:00 +8°C° 0 mm 1 mps 619 mmHg 72%
12:00 +9°C° 0 mm 1 mps 620 mmHg 69%
13:00 +8°C° 0.1 mm 1 mps 620 mmHg 71%
14:00 +8°C° 0.1 mm 1 mps 620 mmHg 73%
15:00 +8°C° 0.1 mm 1 mps 620 mmHg 75%
16:00 +6°C° 0.1 mm 1 mps 620 mmHg 81%
17:00 +5°C° 0.1 mm 1 mps 620 mmHg 87%
18:00 +4°C° 0.1 mm 1 mps 619 mmHg 92%
19:00 +3°C° 0.1 mm 1 mps 620 mmHg 93%
20:00 +2°C° 0.1 mm 2 mps 620 mmHg 94%
21:00 +1°C° 0.1 mm 2 mps 620 mmHg 94%
22:00 +1°C° 0 mm 2 mps 620 mmHg 93%
23:00 +1°C° 0 mm 2 mps 620 mmHg 93%

6 October, Tuesday

Time Temperature Precipitation Wind Pressure Humidity
00:00 +2°C° 0 mm 1 mps 620 mmHg 92%
01:00 +1°C° 0 mm 1 mps 620 mmHg 90%
02:00 +1°C° 0 mm 1 mps 619 mmHg 87%
03:00 +1°C° 0 mm 1 mps 619 mmHg 85%
04:00 +1°C° 0 mm 1 mps 619 mmHg 83%
05:00 +2°C° 0 mm 1 mps 620 mmHg 80%
06:00 +2°C° 0 mm 1 mps 620 mmHg 78%
07:00 +4°C° 0 mm 1 mps 620 mmHg 75%
08:00 +6°C° 0 mm 1 mps 621 mmHg 73%
09:00 +8°C° 0 mm 1 mps 622 mmHg 71%
10:00 +8°C° 0.3 mm 1 mps 622 mmHg 73%
11:00 +8°C° 0.3 mm 1 mps 621 mmHg 75%
12:00 +7°C° 0.3 mm 1 mps 621 mmHg 77%
13:00 +8°C° 0.4 mm 1 mps 621 mmHg 79%
14:00 +8°C° 0.4 mm 1 mps 621 mmHg 81%
15:00 +9°C° 0.4 mm 1 mps 621 mmHg 82%
16:00 +8°C° 0.5 mm 1 mps 621 mmHg 85%
17:00 +8°C° 0.5 mm 1 mps 621 mmHg 87%
18:00 +8°C° 0.5 mm 1 mps 621 mmHg 90%
19:00 +7°C° 0.6 mm 1 mps 621 mmHg 91%
20:00 +7°C° 0.6 mm 1 mps 621 mmHg 92%
21:00 +7°C° 0.6 mm 1 mps 621 mmHg 93%
22:00 +7°C° 0.1 mm 1 mps 621 mmHg 94%
23:00 +7°C° 0.1 mm 1 mps 621 mmHg 94%
Show more

We Need Your Consent

Meteoprog and our Service Providers may store and access personal data such as cookies, device identifiers or other similar technologies on your device and process such data to personalise content and ads, as well as provide social media features and to analyse the traffic.

  • Store and/or access information on your device

    Cookies, device identifiers or other information can be stored or accessed on your device for the purposes indicated above.

  • Personalised ads and content, ad and content measurement, audience insights, and products development

    Ads and content can be personalised based on a profile. More data can be added to better personalise ads and content. Ad and content performance can be measured. Insights about the audience who saw the ads and content can be derived. Such data can be used to develop or improve user’s experience, systems and software.

By clicking ‘I Agree’ you will allow the use of indicated cookies, device identifiers, web beacons or other similar technologies. Your settings can be changed in the browser on your device.

For certain purposes, legitimate interests may be relied on, rather than consent. You can read more about this in our Privacy and Cookie Policy.